DIAMANT R/B, 2017

Orbit data source: Space-Track

DIAMANT R/B, 2017 is space debris in LEO originally from a launch on Thu, 17 Feb 1966 UTC launched from the Hamma Guira Space Track Range (HGSTR). Debris objects in space refer to the collection of defunct objects orbiting the Earth. Examples of debris include non-operational satellites, rocket bodies, and fragments generated from explosions, collisions, or faulty payload assembly.

Loading next visibility...
Identifier
2017, 1966-013B
Orbit
LEO
Country
Flag of FRFR
Related business
Manufacturer
Sud
Mission
Spacecraft
Bus & Motor
RUBIS, Unknown motor
Mass
65 kg wet, 65 kg dry
Launch date (UTC)
1966-02-17 (60 years ago)
Launch vehicle
Unknown
Launch site
Hamma Guira Space Track Range (HGSTR)
Object type
Payload
Rocket body
Debris
Shape & HBR
Cyl, 1.1 m
Radar Cross Section
1.347 m², Medium (>0.1 m² and < 1m²)

Expand to show TLE details & history
Last TLE update: 23 hours ago

TLE from 23 hours ago
0 DIAMANT R/B
1 02017U 66013B   25260.24998416  .00000877  00000-0  22130-3 0  9997
2 02017  34.0681 221.6319 1041998 229.9160 120.5478 12.92080184734432
Epoch: 2025-09-17T05:59Z
TLE epoch observation values (Epoch: 2025-09-17T05:59:58.631Z)
Latitude
-0.00001°
Longitude
135.20896°
Altitude
1,755.274 km
Speed
6.789 km/s
True Right ascension
14h 46m 31s
True Declination
0° 00' 00"
Sunlit
Object was in daylight at epoch
Visualization orbit readout
Latitude
Unknown
Longitude
Unknown
Altitude
Unknown
Speed
Unknown
Apparent Right ascension
Unknown
Apparent Declination
Unknown
Sunlit
N/A
Visualization observer readout
Local Sidereal Time
21:27:04
Azimuth
Unknown
Elevation
Unknown
Doppler factor
Unknown
Orbital elements
Apogee altitude
2,096.056 km
Perigee altitude
496.691 km
Semi-major axis
7,674.51 km
Eccentricity
0.1042
Inclination
34.0681°
RAAN
221.6319°
Arg. of periapsis
229.916°
True anomaly
130.14637°
Mean anomaly
120.5478°
Eccentric anomaly
125.41347°
Mean motion
3.22825 °/min
Orbital period
111.52 mins
BSTAR
0.0002213
Loading maneuver chart data...
Computing Atmospheric mass density...

Documentation

Showing up to 5 results
|